Terug naar catalogus

STARLINK-30842

ActiefCommunicatieVLEO
NORAD 58357·PAYLOAD·🇺🇸 United States

Gelanceerd Nov 18, 2023 vanaf Cape Canaveral Space Force Station

Loading…

Volgende Passages (komende 24 uur)

TLE

VersSource: CelesTrak SupGP

Epoch: Sep 14, 2026, 22:33 UTC

1 58357C 23177G   26257.94006944 -.00778060  00000+0 -24716-1 0  2573
2 58357  43.0065 346.7053 0002029 278.5980 219.6413 15.32208121    10

Volg STARLINK-30842 in realtime met AllMySat

Download on the App Store